[[{"header":{"parameterUnit":"m.s-1","parameterCategory":1,"la1":30.2991,"la2":30.254,"lo1":-89.0895,"lo2":-89.0444,"dy":0.0017,"dx":0.0017,"nx":28,"ny":28,"refTime":"2025-04-18T09:00:00:Z","depth":0,"parameterNumber":2,"parameterNumberName":"U-component_of_WINDS"},"data":[0,0,0,0,0,0,0,0,0,0,0,0,0,0,0,0,0,0,0,0,0,0,0,0,0,0,0,0,0,0,0,0,0,0,0,0,0,0,0,0,0,0,0,0,0,0,0,0,0,0,0,0,0,0,0,0,0,0,-4.4373,-4.4374,0,-4.4465,-4.4466,-4.4467,-4.4464,-4.4462,-4.4461,-4.446,-4.4552,-4.4556,-4.4559,0,0,0,0,0,0,0,0,0,0,0,0,0,-4.4195,-4.4198,-4.4373,-4.4374,-4.4375,-4.4465,-4.4466,-4.4467,-4.4464,-4.4462,-4.4461,-4.4459,-4.4551,-4.4555,-4.456,0,0,0,0,0,0,0,0,0,0,0,0,0,-4.4278,-4.4199,-4.4373,-4.4385,-4.4386,-4.4464,-4.4466,-4.4468,-4.4464,-4.4462,-4.446,-4.4459,-4.455,-4.4555,-4.456,-4.4632,0,0,-4.4577,-4.4579,0,0,0,0,0,0,0,0,-4.4273,-4.4284,-4.4382,-4.4384,-4.4386,-4.4451,-4.4437,-4.4523,-4.4465,-4.4435,-4.446,-4.4458,-4.452,-4.4528,-4.4549,-4.4636,-4.464,-4.4577,-4.4581,-4.4583,-4.4585,0,0,0,0,0,0,0,-4.4267,-4.428,-4.4409,-4.4383,-4.4386,-4.4385,-4.4395,-4.4453,-4.4487,-4.4437,-4.4437,-4.4448,-4.4521,-4.4544,-4.4551,-4.4642,-4.4577,-4.4582,-4.4585,-4.4588,-4.4793,-4.4795,0,0,0,0,0,0,-4.4259,-4.4275,-4.4406,-4.4412,-4.4324,-4.439,-4.4401,-4.4432,-4.4486,-4.4493,-4.445,-4.4448,-4.4535,-4.4545,-4.4554,-4.4642,-4.4583,-4.4588,-4.4591,-4.4791,-4.4794,-4.4796,0,0,0,0,0,0,-4.4255,-4.4271,-4.4403,-4.4344,-4.4361,-4.4395,-4.443,-4.4435,-4.4458,-4.4496,-4.4501,-4.4467,-4.4534,-4.4547,-4.4613,-4.4645,-4.4591,-4.4596,-4.4788,-4.4792,-4.4795,-4.4817,0,0,0,0,0,0,-4.425,-4.4269,-4.4297,-4.4345,-4.4364,-4.446,-4.4432,-4.4438,-4.4467,-4.4466,-4.4513,-4.4519,-4.4534,-4.4605,-4.4618,-4.4651,-4.46,-4.4786,-4.479,-4.4794,-4.4813,-4.482,-4.4826,0,0,0,0,0,-4.4244,-4.4299,-4.4298,-4.4314,-4.4399,-4.4462,-4.4473,-4.4488,-4.447,-4.4498,-4.4523,-4.4518,-4.464,-4.4612,-4.4627,-4.4662,-4.4784,-4.4789,-4.4793,-4.481,-4.4819,-4.4826,0,0,0,0,0,0,-4.4253,-4.4305,-4.4305,-4.4378,-4.4415,-4.4461,-4.4496,-4.4497,-4.454,-4.4536,-4.4554,-4.4565,-4.4631,-4.4654,-4.4621,-4.4735,-4.4709,-4.4718,-4.4717,-4.4725,-4.4732,-4.4724,-4.4604,0,0,0,0,0,-4.4264,-4.4311,-4.4354,-4.4414,-4.4433,-4.4462,-4.4489,-4.4499,-4.4538,-4.4554,-4.4583,-4.4621,-4.4668,-4.4698,-4.4744,-4.4818,-4.4828,-4.4849,-4.4856,-4.4861,-4.4867,-4.4908,-4.4918,-4.4812,-4.4812,-4.4812,0,0,-4.4286,-4.4321,-4.4349,-4.4416,-4.4447,-4.4494,-4.4475,-4.4526,-4.4562,-4.4561,-4.4625,-4.4649,-4.4693,-4.4763,-4.4795,-4.4784,-4.4899,-4.4867,-4.4871,-4.4875,-4.4914,-4.4924,-4.4933,-4.4816,-4.4815,-4.4814,0,0,-4.435,-4.4382,-4.4435,-4.4466,-4.4512,-4.4532,-4.4545,-4.4591,-4.4606,-4.4672,-4.4672,-4.4715,-4.4796,-4.4827,-4.4853,-4.4932,-4.4929,-4.4947,-4.498,-4.5019,-4.5027,-4.5035,-4.5062,-4.5071,-4.4953,-4.4953,-4.4953,0,-4.4371,-4.4444,-4.4462,-4.4513,-4.4543,-4.4547,-4.46,-4.463,-4.4689,-4.4709,-4.4696,-4.4797,-4.4827,-4.4905,-4.4924,-4.4946,-4.4961,-4.494,-4.5025,-4.5033,-4.504,-4.5066,-4.5076,-4.4955,-4.4955,-4.4955,-4.4954,0,-4.4467,-4.4517,-4.4555,-4.4612,-4.4646,-4.4699,-4.4725,-4.4757,-4.4764,-4.4785,-4.4852,-4.4888,-4.4941,-4.4961,-4.4967,-4.504,-4.5031,-4.5021,-4.4996,-4.5051,-4.5076,-4.5086,-4.4957,-4.4957,-4.4956,-4.4956,0,0,-4.4537,-4.4605,-4.4618,-4.4645,-4.4698,-4.4737,-4.479,-4.4842,-4.4869,-4.4911,-4.4955,-4.5025,-4.5017,-4.5047,-4.5058,-4.5093,-4.5152,-4.5079,-4.508,-4.5089,-4.5232,-4.5237,-4.5248,-4.5151,-4.5153,-4.5155,-4.5228,0,-4.4605,-4.47,-4.4718,-4.48,-4.4846,-4.4852,-4.4898,-4.4936,-4.4957,-4.5,-4.5023,-4.5072,-4.5058,-4.5076,-4.5111,-4.5137,-4.518,-4.5132,-4.5192,-4.5193,-4.5178,-4.5262,-4.5267,-4.5334,-4.5238,-4.5239,-4.5241,0,-4.4697,-4.4741,-4.4828,-4.4875,-4.4895,-4.4936,-4.4986,-4.5027,-4.507,-4.5084,-4.5118,-4.5126,-4.5181,-4.5156,-4.5232,-4.5199,-4.5225,-4.5242,-4.5245,-4.5249,-4.5218,-4.5266,-4.5356,-4.5365,-4.5256,-4.5255,-4.5254,0,-4.4737,-4.4819,-4.4881,-4.4904,-4.4961,-4.499,-4.5015,-4.5056,-4.5087,-4.5131,-4.5151,-4.5201,-4.5227,-4.5266,-4.5287,-4.5266,-4.5361,-4.5337,-4.5373,-4.5372,-4.539,-4.5388,-4.5484,-4.5411,-4.5411,-4.5411,-4.541,0,-4.4811,-4.4863,-4.49,-4.4938,-4.4997,-4.5019,-4.5076,-4.5101,-4.5138,-4.5181,-4.519,-4.523,-4.5256,-4.53,-4.5317,-4.5377,-4.539,-4.5401,-4.5405,-4.5399,-4.5398,-4.5415,-4.541,-4.5413,-4.5413,-4.5412,-4.5412,0,-4.4864,-4.4892,-4.496,-4.5009,-4.5023,-4.5064,-4.5106,-4.5143,-4.5166,-4.522,-4.5234,-4.5269,-4.5321,-4.5347,-4.5412,-4.5423,-4.5491,-4.5492,-4.5476,-4.5477,-4.551,-4.5506,-4.5618,-4.5633,-4.5552,-4.5553,-4.5554,0,-4.4908,-4.4948,-4.5003,-4.5032,-4.5058,-4.5106,-4.5137,-4.5161,-4.5194,-4.5247,-4.5277,-4.533,-4.5373,-4.5457,-4.5488,-4.5538,-4.5539,-4.5575,-4.5547,-4.554,-4.5538,-4.5534,-4.5538,-4.5579,-4.558,-4.5581,-4.5581,0,-4.4982,-4.4994,-4.504,-4.509,-4.5128,-4.5169,-4.5209,-4.5233,-4.5263,-4.5299,-4.5353,-4.5387,-4.5454,-4.5506,-4.5559,-4.5584,-4.5588,-4.5591,-4.5601,-4.5595,-4.5583,-4.5588,-4.5488,-4.5587,-4.5586,-4.5586,-4.5586,-4.5586,-4.5031,-4.5068,-4.5111,-4.5162,-4.5195,-4.5233,-4.527,-4.5298,-4.5344,-4.54,-4.5412,-4.5468,-4.5512,-4.5582,-4.561,-4.5655,-4.5647,-4.5663,-4.5666,-4.5669,-4.567,-4.5578,-4.5665,-4.5665,-4.5665,-4.5665,-4.5665,0,-4.5105,-4.5134,-4.518,-4.5236,-4.5276,-4.5278,-4.5323,-4.5356,-4.5406,-4.5446,-4.5489,-4.5551,-4.5603,-4.5639,-4.5691,-4.572,-4.5723,-4.5732,-4.5729,-4.5735,-4.5675,-4.566,-4.5729,-4.5729,-4.5729,-4.5729,-4.5729,-4.5729,-4.5147,-4.5208,-4.5226,-4.5304,-4.5333,-4.5389,-4.5414,-4.5449,-4.5481,-4.555,-4.5593,-4.5617,-4.5655,-4.5711,-4.5758,-4.5767,-4.5785,-4.5795,-4.5804,-4.5746,-4.5739,-4.5733,-4.5718,-4.5799,-4.5799,-4.586,-4.586,-4.5861]},{"header":{"parameterUnit":"m.s-1","parameterCategory":1,"la1":30.2991,"la2":30.254,"lo1":-89.0895,"lo2":-89.0444,"dy":0.0017,"dx":0.0017,"nx":28,"ny":28,"refTime":"2025-04-18T09:00:00:Z","depth":0,"parameterNumber":3,"parameterNumberName":"V-component_of_WINDS"},"data":[0,0,0,0,0,0,0,0,0,0,0,0,0,0,0,0,0,0,0,0,0,0,0,0,0,0,0,0,0,0,0,0,0,0,0,0,0,0,0,0,0,0,0,0,0,0,0,0,0,0,0,0,0,0,0,0,0,0,3.2835,3.2836,0,3.287,3.2871,3.2871,3.2931,3.2932,3.2933,3.2934,3.2961,3.2961,3.2961,0,0,0,0,0,0,0,0,0,0,0,0,0,3.2813,3.2814,3.2835,3.2836,3.2836,3.287,3.2871,3.2871,3.2931,3.2932,3.2934,3.2935,3.2961,3.2961,3.296,0,0,0,0,0,0,0,0,0,0,0,0,0,3.2833,3.2814,3.2835,3.287,3.2874,3.287,3.2871,3.2871,3.293,3.2932,3.2934,3.2936,3.2961,3.2961,3.296,3.2923,0,0,3.2959,3.2959,0,0,0,0,0,0,0,0,3.2832,3.2833,3.2865,3.2868,3.2872,3.2898,3.2873,3.2888,3.293,3.2909,3.2934,3.2936,3.2938,3.294,3.2942,3.2924,3.2925,3.2959,3.2958,3.2958,3.2958,0,0,0,0,0,0,0,3.283,3.2832,3.2849,3.2865,3.2869,3.2882,3.2887,3.2876,3.2913,3.2911,3.2915,3.2919,3.294,3.2943,3.2943,3.2925,3.2959,3.2958,3.2958,3.2958,3.288,3.2879,0,0,0,0,0,0,3.2825,3.2831,3.2848,3.285,3.2856,3.2881,3.2886,3.2888,3.2913,3.2919,3.2917,3.2922,3.2943,3.2944,3.2944,3.2904,3.2958,3.2958,3.2957,3.2882,3.288,3.2878,0,0,0,0,0,0,3.2824,3.2826,3.2846,3.2842,3.2845,3.288,3.2881,3.2888,3.289,3.2919,3.2925,3.2913,3.2944,3.2945,3.2929,3.2906,3.2957,3.2957,3.2884,3.2882,3.2879,3.2822,0,0,0,0,0,0,3.2823,3.2825,3.2813,3.2841,3.2845,3.2832,3.2879,3.2887,3.289,3.2896,3.2916,3.2921,3.2946,3.2929,3.2928,3.2906,3.2957,3.2886,3.2883,3.288,3.2826,3.2817,3.281,0,0,0,0,0,3.2822,3.2792,3.2812,3.2813,3.2831,3.2831,3.2833,3.2864,3.2888,3.2875,3.2894,3.2921,3.2908,3.2927,3.2927,3.2904,3.2888,3.2884,3.288,3.2829,3.2819,3.2811,0,0,0,0,0,0,3.2756,3.2797,3.2818,3.2797,3.2811,3.2841,3.2825,3.2851,3.2856,3.286,3.2896,3.29,3.2879,3.289,3.291,3.287,3.2903,3.2898,3.2864,3.2855,3.2847,3.2845,3.2956,0,0,0,0,0,3.274,3.2739,3.2773,3.2751,3.2757,3.279,3.2791,3.2814,3.2828,3.2833,3.285,3.286,3.2859,3.2857,3.2857,3.2828,3.2833,3.2811,3.2804,3.2797,3.2793,3.278,3.2771,3.2865,3.2865,3.2866,0,0,3.2705,3.2727,3.2723,3.2739,3.2752,3.2748,3.2794,3.2787,3.2785,3.2831,3.2818,3.2831,3.2845,3.2822,3.2813,3.283,3.2769,3.2792,3.2787,3.2786,3.2775,3.2766,3.2758,3.2863,3.2863,3.2864,0,0,3.264,3.2656,3.2642,3.2655,3.2675,3.2698,3.2694,3.2721,3.2733,3.2721,3.2756,3.2752,3.2749,3.2758,3.2762,3.2704,3.2729,3.2702,3.2662,3.2649,3.2641,3.2635,3.2615,3.2608,3.2698,3.2698,3.2698,0,3.2593,3.2593,3.2629,3.2623,3.2629,3.2674,3.2658,3.2668,3.2686,3.2688,3.2707,3.2707,3.2718,3.27,3.2686,3.2687,3.2684,3.27,3.264,3.2634,3.2628,3.261,3.2603,3.2695,3.2695,3.2695,3.2696,0,3.2535,3.2533,3.2518,3.254,3.2543,3.2531,3.2566,3.2565,3.2588,3.2608,3.2596,3.2612,3.2618,3.2615,3.2635,3.2599,3.261,3.2634,3.2668,3.2616,3.2599,3.2592,3.269,3.2691,3.2692,3.2693,0,0,3.2428,3.2473,3.2467,3.2478,3.2505,3.2503,3.2494,3.2503,3.2502,3.2513,3.2506,3.2503,3.2527,3.2531,3.2554,3.2542,3.2497,3.2568,3.2569,3.2555,3.246,3.2443,3.2434,3.2514,3.2513,3.2512,3.2459,0,3.237,3.236,3.2394,3.2374,3.2374,3.2417,3.2409,3.2424,3.2442,3.2443,3.2462,3.2461,3.2491,3.2495,3.2485,3.2504,3.2478,3.2508,3.2507,3.2506,3.2503,3.2425,3.2406,3.2356,3.2453,3.2452,3.2451,0,3.2301,3.2313,3.2294,3.2325,3.2326,3.2319,3.2331,3.2331,3.2349,3.2363,3.237,3.2397,3.2389,3.2421,3.241,3.2429,3.2431,3.244,3.2439,3.244,3.2476,3.2426,3.2341,3.2334,3.2441,3.2442,3.2443,0,3.2228,3.2239,3.223,3.2238,3.2273,3.2267,3.228,3.23,3.2304,3.2313,3.2317,3.2323,3.2327,3.2331,3.2359,3.238,3.2345,3.2379,3.2356,3.2355,3.2347,3.2347,3.2262,3.2345,3.2345,3.2346,3.2346,0,3.216,3.2147,3.2198,3.2193,3.2179,3.2218,3.2203,3.222,3.2238,3.2236,3.2272,3.2268,3.2305,3.2305,3.2326,3.2314,3.2315,3.2326,3.2332,3.2323,3.2322,3.2325,3.233,3.2344,3.2344,3.2344,3.2345,0,3.2076,3.211,3.2104,3.2139,3.2147,3.2136,3.2165,3.2161,3.2182,3.2179,3.218,3.2213,3.2215,3.2244,3.2251,3.2265,3.2245,3.2257,3.224,3.2245,3.2221,3.2223,3.2135,3.2126,3.2214,3.2213,3.2212,0,3.2032,3.2024,3.2059,3.2062,3.2076,3.2079,3.2084,3.2121,3.2125,3.2146,3.2139,3.2145,3.2152,3.2153,3.2176,3.2182,3.2195,3.2164,3.2196,3.2188,3.2196,3.2197,3.2197,3.2157,3.2156,3.2155,3.2154,0,3.195,3.1968,3.1976,3.1991,3.1997,3.2009,3.2024,3.2023,3.2064,3.2066,3.2071,3.2076,3.2086,3.2091,3.2102,3.2114,3.214,3.2144,3.2139,3.2131,3.2123,3.2129,3.2223,3.2146,3.2147,3.2147,3.2148,3.2148,3.1885,3.1881,3.1907,3.1915,3.1931,3.1944,3.1943,3.1966,3.1971,3.1985,3.2005,3.2007,3.2026,3.2044,3.2053,3.2054,3.207,3.2062,3.2061,3.2059,3.2055,3.2122,3.2056,3.2056,3.2056,3.2056,3.2057,0,3.1807,3.1826,3.1834,3.1855,3.1861,3.1889,3.1907,3.191,3.1912,3.1929,3.1936,3.1942,3.1948,3.1973,3.1981,3.1977,3.1989,3.1978,3.1979,3.1982,3.2039,3.2044,3.1968,3.1968,3.1968,3.1968,3.1968,3.1968,3.1767,3.1762,3.1783,3.1786,3.1805,3.181,3.1818,3.183,3.1844,3.185,3.1857,3.1874,3.1894,3.1904,3.1911,3.1918,3.1919,3.1904,3.1915,3.1969,3.1977,3.1985,3.199,3.1904,3.1904,3.1858,3.1857,3.1857]}]]